Temperature
22 23 24 24 24 24 23 22 21 21 21 20 20 20 20 20 20 20 19 19 19 19 19 18 18 18 18 17 17 17 17 17 17 17 17 16 16 16 16 16 16 16 16 16
21 23 23 23 24 24 23 23 22 22 21 20 20 20 20 20 20 20 19 19 19 19 19 19 18 18 18 18 17 17 17 17 17 17 16 16 16 16 16 16 16 16 16 15
19 21 22 21 22 23 22 22 22 21 20 19 19 18 18 19 19 19 19 19 19 19 19 19 19 19 18 18 17 17 17 17 16 16 16 16 16 16 16 15 15 15 15 15
18 20 20 20 21 22 21 20 20 20 19 19 18 18 18 19 19 19 19 19 19 19 19 19 19 19 18 18 17 17 17 17 16 16 16 16 16 16 15 15 15 15 14 14
16 18 19 21 21 21 20 18 19 18 18 18 18 18 17 18 19 19 19 19 19 19 19 19 18 18 18 18 17 17 17 16 16 16 16 16 15 15 15 15 14 14 14 13
16 18 18 19 20 21 20 17 18 18 17 17 17 16 16 17 18 18 19 19 19 19 19 18 18 18 18 18 17 17 17 16 16 16 16 15 15 15 14 14 13 13 13 12
16 17 18 18 19 20 18 17 17 18 17 17 16 16 17 17 18 18 18 18 18 18 18 18 17 17 17 17 17 16 16 16 15 15 15 15 14 14 13 13 13 12 12 12
15 16 17 17 18 17 16 17 17 17 17 17 17 16 16 16 17 17 17 17 17 17 17 17 17 17 17 16 16 15 15 15 15 14 14 14 13 13 12 12 12 12 11 11
14 15 15 16 16 17 17 17 17 17 17 17 16 15 15 15 15 16 16 16 16 16 15 15 16 16 16 15 15 15 14 14 14 13 13 12 12 12 12 12 11 11 11 10
14 14 15 16 16 17 17 17 17 17 17 17 16 15 15 15 15 14 15 15 14 15 14 14 14 14 14 14 14 14 13 13 12 12 12 12 11 11 11 11 10 10 10 9
13 14 14 15 15 16 16 16 16 16 16 16 15 14 14 14 14 14 14 14 14 14 14 13 13 13 13 13 13 12 12 12 11 11 11 11 10 10 10 10 10 9 9 8
13 13 13 13 14 15 15 15 15 15 15 14 14 14 13 13 13 13 12 12 12 12 12 12 12 12 12 12 12 12 11 11 11 10 10 10 10 9 9 8 8 8 8 7
14 14 14 14 14 14 14 15 15 14 14 13 13 13 12 12 11 11 11 11 11 11 11 11 11 11 11 11 11 11 11 10 10 10 10 9 9 9 8 7 7 7 7 7
14 13 13 13 13 13 13 14 14 13 13 13 12 12 12 11 11 11 10 10 10 10 10 10 10 10 10 10 10 10 10 10 10 9 9 9 8 8 8 8 7 6 6 6
13 13 13 12 12 12 13 13 12 12 12 11 11 11 11 10 10 9 9 10 10 10 10 10 9 9 9 9 10 10 9 9 9 9 8 8 8 7 7 7 7 6 6 5
12 12 12 12 12 12 12 12 11 11 11 10 10 10 10 10 9 9 9 9 9 9 9 9 9 9 9 9 9 9 9 8 8 8 8 8 7 7 7 6 6 6 5 5
12 11 11 11 11 11 11 11 11 10 10 10 9 9 9 9 9 8 8 9 9 9 8 9 8 8 8 9 9 8 8 8 8 8 8 7 7 7 7 6 6 5 5 5
12 12 12 12 11 11 11 10 10 10 9 9 9 9 9 9 8 8 8 8 8 8 8 8 8 8 8 8 8 8 8 8 8 8 7 7 7 6 6 6 5 5 4 4
11 11 11 11 11 11 10 10 9 9 9 9 9 8 8 8 8 8 8 8 8 8 8 8 8 8 8 8 8 8 8 8 7 7 7 6 6 6 5 5 5 4 4 4
11 11 11 10 10 10 10 9 9 9 9 9 8 8 8 8 8 8 8 8 8 8 8 8 8 8 8 8 7 7 7 7 7 7 6 6 6 5 5 5 4 4 4 3
10 10 10 10 10 10 10 9 9 9 8 9 8 8 8 8 8 8 8 7 7 7 8 8 8 7 7 7 7 7 7 7 6 6 6 6 5 5 5 4 4 4 3 3
10 10 10 10 9 9 9 9 9 9 8 8 8 8 8 8 8 8 8 7 7 7 7 7 7 7 7 7 7 7 6 6 6 6 6 5 5 5 4 4 4 3 3 3
10 9 9 9 9 9 9 9 9 9 8 8 8 8 8 8 8 8 7 7 7 7 7 7 7 7 7 7 7 6 6 6 6 6 5 5 5 4 4 4 3 3 3 3
9 9 9 9 9 9 9 9 9 9 8 8 8 8 8 8 8 8 8 7 7 7 7 7 7 7 7 6 6 6 6 6 6 5 5 5 4 4 4 4 3 3 3 2
9 9 9 9 9 9 9 9 9 8 8 8 8 8 8 8 8 8 7 7 7 7 7 7 7 7 6 6 6 6 6 6 5 5 5 5 4 4 4 3 3 3 3 2
9 9 9 9 9 9 9 9 8 8 8 8 8 8 8 8 7 7 7 7 7 7 7 6 6 6 6 6 6 6 5 5 5 5 5 4 4 4 4 3 3 3 3 2
9 9 9 9 9 9 9 9 9 8 8 8 8 8 7 7 7 7 7 7 7 7 6 6 6 6 6 6 6 5 5 5 5 5 4 4 4 4 3 3 3 3 2 2
Wind_Speed
2 1 0 0 1 2 2 4 5 5 6 7 9 9 8 7 9 10 10 11 12 13 11 10 10 9 9 9 9 9 10 9 9 8 8 8 8 8 7 7 7 6 6 6
4 5 4 3 3 2 2 0 2 3 2 4 3 4 4 5 8 10 11 12 11 13 13 12 12 12 11 10 10 9 10 9 8 8 8 8 8 8 8 7 6 6 6 6
2 3 5 2 2 0 2 3 1 3 3 1 5 5 5 5 6 9 10 10 11 11 11 11 12 13 12 11 10 10 10 9 8 8 8 8 9 9 8 8 8 8 7 8
2 3 3 7 3 3 6 6 5 4 3 4 5 4 3 3 5 6 7 8 9 9 9 9 9 9 10 10 10 11 10 10 10 10 10 9 10 10 9 9 9 8 9 9
4 3 4 5 4 1 4 4 5 5 6 6 6 6 5 3 2 4 4 6 7 7 7 7 8 10 11 10 10 11 10 10 10 11 11 11 11 10 10 11 11 9 9 10
4 4 4 4 6 2 7 3 4 5 6 4 3 3 1 1 3 4 4 5 6 7 7 7 8 10 11 11 10 10 10 10 10 11 12 12 12 12 11 12 12 12 12 10
4 4 4 4 6 5 4 4 2 3 4 3 1 2 3 3 5 6 6 6 7 8 7 6 7 10 11 10 9 9 10 11 11 11 12 13 12 12 13 14 14 13 13 10
2 3 5 5 5 4 4 2 1 3 3 4 5 5 5 6 6 7 7 7 8 9 8 6 8 12 12 10 9 11 12 13 12 11 11 12 13 13 13 14 14 12 12 11
4 4 2 2 4 3 3 3 2 2 3 6 6 6 7 7 7 7 8 8 7 9 10 8 8 11 14 11 12 14 14 14 13 14 12 12 13 13 12 11 11 10 9 9
1 1 1 4 4 4 4 4 3 4 4 5 6 7 8 8 8 8 9 9 9 11 13 11 10 11 12 12 13 16 16 14 13 14 13 12 10 9 10 9 10 10 9 8
1 1 2 4 4 4 5 5 6 5 5 7 9 9 9 9 9 9 9 9 10 11 13 13 13 13 12 12 15 17 16 14 14 13 13 13 11 9 9 7 8 10 7 7
4 4 2 3 2 1 3 3 5 7 8 8 10 11 11 10 10 11 11 11 12 13 14 14 14 14 13 12 15 16 15 13 12 11 11 12 13 12 15 12 14 13 10 8
3 2 2 2 1 1 2 4 6 9 10 10 10 12 14 13 11 12 13 13 13 13 13 13 14 14 11 11 13 14 14 12 11 11 11 10 10 12 10 9 12 12 10 10
2 2 1 1 1 2 5 7 10 11 11 12 12 13 15 15 14 14 13 13 13 13 13 13 14 12 10 11 12 13 13 13 11 9 9 9 8 8 9 9 7 4 5 7
1 2 4 3 4 5 7 10 12 12 13 13 13 14 15 16 15 14 13 13 14 14 13 13 13 11 9 11 12 12 10 9 8 8 8 8 8 8 7 7 6 4 3 4
2 3 6 7 7 8 10 12 13 13 14 14 14 14 15 16 15 14 12 12 14 13 11 12 11 9 9 10 10 9 9 12 10 8 8 8 7 7 6 6 5 4 3 2
4 5 6 8 8 9 9 11 13 14 14 15 16 16 16 16 16 15 12 11 12 12 10 10 9 8 8 9 9 8 8 9 12 9 8 7 7 7 6 6 5 4 3 3
4 5 7 9 10 11 12 13 14 15 15 16 16 15 15 15 15 14 12 11 12 11 9 8 8 9 9 9 8 8 8 7 7 7 7 7 7 6 6 6 6 6 4 5
6 7 9 11 12 12 13 14 14 14 15 15 16 15 14 13 12 12 11 11 11 10 6 7 11 9 8 9 9 7 7 8 7 7 7 9 8 6 6 6 5 5 5 5
10 12 13 14 14 14 14 14 15 15 14 14 15 14 13 12 11 11 11 9 6 5 6 8 8 7 7 8 10 7 7 8 8 7 7 7 7 6 6 6 6 6 5 4
12 14 15 15 14 14 14 14 15 15 13 13 13 13 13 11 10 10 10 8 5 6 8 9 7 5 5 7 9 7 7 8 7 7 7 7 7 6 6 6 6 5 5 4
11 13 14 14 14 13 12 12 13 14 13 12 13 13 12 11 10 9 7 6 6 8 7 5 5 7 9 9 7 7 7 8 7 6 6 6 6 6 6 6 5 5 4 4
11 12 13 13 14 14 13 12 12 13 13 12 12 12 11 9 7 8 6 3 5 8 6 5 8 11 12 8 6 7 7 7 6 6 6 6 6 6 5 5 5 4 4 4
12 12 12 13 14 14 13 12 11 11 11 11 10 10 10 9 6 4 5 8 9 9 6 7 11 12 11 6 6 7 7 6 6 6 6 5 5 5 5 5 4 3 3 4
11 12 13 13 12 10 11 11 12 11 11 9 9 8 7 6 7 6 6 7 9 9 6 7 10 11 7 6 6 6 6 6 6 6 6 5 5 5 4 4 4 3 3 3
10 9 9 9 9 8 8 9 8 8 8 8 7 6 6 6 7 7 6 6 8 8 5 4 5 6 5 6 6 6 6 6 6 6 6 5 5 4 4 4 4 3 3 3
10 8 8 8 7 7 7 8 8 7 7 8 8 6 7 7 6 6 7 5 5 4 4 4 4 4 5 5 5 5 5 5 5 5 4 4 4 4 4 4 4 4 5 5
Wind_Direction
165 223 87 358 34 58 95 173 176 206 192 220 212 197 188 173 160 152 154 164 168 168 167 167 171 173 172 171 169 166 160 162 166 163 158 153 151 147 143 140 145 143 135 128
18 17 31 13 349 1 2 131 182 150 223 263 194 141 134 158 160 158 163 167 169 169 170 175 180 179 175 172 172 167 164 164 159 153 149 148 149 143 138 138 133 125 123 120
326 344 42 333 267 146 11 341 145 160 221 168 119 137 152 158 156 165 170 167 166 168 173 181 184 177 174 171 164 159 159 158 156 152 150 149 146 134 134 132 120 112 110 104
132 57 221 245 261 110 85 46 57 90 91 108 120 112 95 133 148 147 159 161 165 165 170 176 176 170 164 158 155 157 161 162 159 151 146 142 137 134 130 120 111 106 99 97
127 166 269 299 335 42 103 40 22 78 80 81 94 80 38 15 110 136 153 158 159 155 150 155 159 162 154 151 153 155 159 158 155 149 143 135 130 126 120 111 104 97 93 91
137 156 214 260 314 342 99 71 357 87 103 96 80 93 253 359 74 93 97 116 130 133 124 141 153 151 148 151 151 156 155 148 143 139 136 131 129 122 115 111 107 101 91 83
163 191 238 293 320 35 100 207 277 105 119 110 106 174 165 107 83 86 93 102 115 124 130 143 145 138 135 138 142 142 134 130 127 125 126 125 120 116 116 113 108 102 93 79
150 182 236 324 40 94 177 205 104 96 106 108 112 112 114 100 94 94 99 101 111 119 121 119 124 127 124 124 123 118 115 115 115 116 118 117 115 113 114 114 109 104 96 83
194 205 247 26 102 124 128 115 102 107 124 127 125 128 123 107 100 94 97 99 107 113 105 93 98 116 119 118 117 113 107 105 103 99 100 106 111 114 113 113 113 110 104 97
10 301 28 33 45 51 72 89 96 106 121 128 128 125 122 117 107 96 92 97 105 108 104 95 90 94 104 109 111 109 106 102 99 99 95 92 94 103 112 115 118 116 112 108
251 266 25 17 21 48 61 73 80 90 102 122 127 122 121 116 113 107 100 98 100 103 104 103 100 97 98 103 106 104 102 102 99 97 97 90 82 77 91 91 117 123 122 123
220 221 186 251 290 56 93 100 106 105 94 101 116 120 114 111 109 107 103 100 98 98 101 101 100 98 98 102 107 109 108 106 105 105 103 102 99 84 61 79 90 98 110 115
202 204 181 220 345 64 111 116 114 114 118 117 109 111 109 105 101 101 101 100 100 101 101 101 101 99 98 102 107 109 113 113 112 111 112 112 112 112 103 72 66 78 92 97
173 143 134 128 105 102 112 108 105 102 105 111 110 109 108 106 104 102 102 102 101 99 97 98 99 97 98 101 103 106 109 113 117 119 120 121 121 121 123 121 109 72 53 70
242 181 166 144 120 113 113 113 111 109 109 107 109 111 112 111 107 102 101 101 99 96 95 96 96 95 97 101 103 105 109 115 116 118 119 119 119 116 114 113 112 104 76 49
170 138 135 135 131 125 121 118 119 120 118 115 113 111 110 109 106 103 101 102 102 99 97 97 95 94 95 98 100 102 107 116 118 118 117 116 119 119 118 117 113 107 101 89
152 147 141 139 133 125 123 123 123 122 121 119 117 115 113 110 107 103 99 95 95 94 93 96 97 94 93 95 98 98 99 107 110 110 116 119 121 122 122 121 119 113 107 105
146 153 149 142 136 127 120 118 119 121 121 119 118 116 115 114 113 112 109 103 96 88 82 88 95 94 89 90 95 98 100 99 103 107 109 112 114 115 117 117 120 115 100 95
121 124 125 122 121 120 118 117 118 118 119 120 118 115 112 111 112 112 109 105 103 98 86 89 94 92 93 95 100 101 104 104 101 102 108 114 112 114 115 114 114 115 115 109
105 111 115 115 115 117 118 117 117 117 119 119 117 115 113 112 112 110 105 97 97 109 107 97 94 92 95 105 108 108 109 109 108 106 105 107 109 109 109 111 114 115 114 115
109 111 113 113 113 116 120 122 122 123 123 121 121 121 120 117 115 112 109 103 90 95 94 92 92 95 98 106 103 104 104 105 107 109 109 109 109 107 109 112 114 118 122 124
112 113 113 113 113 115 117 121 123 124 121 120 120 121 120 116 111 102 97 111 114 106 99 96 102 107 109 104 102 107 109 110 110 110 111 113 115 116 117 119 120 125 127 131
108 107 109 112 114 114 113 115 119 122 123 125 127 127 125 122 121 121 116 110 109 106 103 106 110 106 105 99 103 107 110 111 112 114 117 120 122 125 126 127 130 132 132 133
105 105 106 109 111 111 112 113 114 117 118 118 120 122 122 118 106 103 120 121 116 109 105 112 107 106 106 106 106 107 108 111 114 116 117 116 117 119 124 128 131 137 140 141
107 108 109 111 112 114 114 113 111 110 110 112 114 114 114 120 127 127 118 117 118 110 106 109 109 105 106 113 112 114 116 122 126 124 120 123 126 129 133 136 140 143 147 153
104 106 107 109 115 117 116 114 114 115 117 115 113 113 113 111 116 118 115 119 120 117 114 112 111 104 108 115 118 121 122 121 117 122 129 132 135 137 140 146 148 151 162 169
93 95 98 100 103 110 114 116 119 122 124 125 123 121 121 120 120 122 120 117 118 119 119 117 116 118 121 124 123 125 128 128 127 132 136 140 146 153 158 161 172 175 176 179
Height
1447 1443 1442 1444 1445 1446 1452 1457 1465 1462 1460 1455 1450 1448 1449 1451 1453 1456 1460 1463 1466 1468 1472 1475 1478 1481 1484 1487 1490 1493 1495 1498 1501 1504 1507 1510 1513 1516 1519 1522 1525 1528 1530 1533
1450 1443 1443 1445 1444 1444 1446 1448 1452 1453 1456 1448 1447 1448 1450 1451 1453 1454 1457 1460 1464 1467 1470 1473 1477 1479 1483 1485 1489 1492 1494 1497 1500 1503 1506 1509 1512 1515 1518 1521 1524 1526 1529 1531
1462 1451 1449 1457 1447 1446 1448 1447 1449 1455 1453 1447 1448 1449 1450 1451 1452 1453 1456 1459 1462 1465 1468 1471 1475 1478 1481 1484 1487 1491 1493 1496 1499 1502 1505 1508 1511 1513 1516 1519 1522 1525 1526 1529
1464 1460 1470 1459 1440 1440 1446 1449 1448 1448 1447 1447 1447 1449 1451 1452 1452 1453 1455 1459 1462 1464 1467 1471 1474 1477 1480 1483 1486 1489 1491 1494 1497 1500 1503 1506 1509 1512 1514 1517 1520 1523 1525 1527
1469 1470 1464 1450 1442 1442 1448 1456 1450 1450 1449 1449 1449 1450 1453 1454 1453 1454 1455 1458 1461 1463 1466 1469 1473 1476 1479 1481 1484 1487 1490 1492 1496 1499 1502 1505 1508 1510 1513 1515 1518 1521 1524 1526
1465 1467 1470 1456 1443 1439 1444 1460 1453 1451 1451 1451 1450 1457 1457 1454 1453 1453 1455 1457 1460 1462 1465 1467 1471 1474 1477 1479 1482 1485 1488 1490 1494 1497 1500 1504 1506 1509 1512 1515 1517 1520 1523 1525
1463 1465 1460 1449 1442 1440 1458 1463 1453 1451 1451 1451 1452 1454 1455 1453 1453 1454 1455 1456 1459 1461 1464 1467 1469 1472 1474 1478 1481 1484 1487 1490 1492 1496 1500 1503 1506 1508 1511 1514 1517 1520 1522 1525
1463 1466 1464 1447 1444 1450 1455 1452 1451 1451 1451 1452 1452 1453 1453 1453 1453 1454 1454 1456 1457 1460 1463 1465 1468 1470 1472 1476 1480 1483 1486 1489 1492 1496 1499 1503 1506 1508 1512 1514 1517 1519 1522 1524
1459 1460 1452 1447 1447 1449 1449 1450 1450 1450 1451 1451 1452 1453 1453 1454 1454 1455 1455 1456 1458 1460 1463 1465 1468 1470 1471 1476 1479 1483 1486 1489 1492 1496 1499 1503 1506 1509 1512 1515 1517 1520 1522 1524
1455 1453 1450 1449 1449 1449 1448 1449 1449 1450 1450 1451 1451 1452 1453 1454 1455 1456 1456 1457 1460 1461 1463 1466 1469 1472 1473 1476 1479 1482 1486 1489 1493 1497 1501 1504 1507 1511 1513 1516 1518 1520 1523 1525
1455 1452 1450 1450 1450 1449 1449 1449 1449 1449 1450 1450 1451 1452 1454 1455 1456 1457 1458 1460 1462 1463 1465 1468 1471 1473 1477 1479 1482 1484 1488 1492 1496 1499 1502 1506 1509 1513 1516 1518 1521 1522 1524 1526
1453 1451 1451 1450 1450 1449 1448 1448 1448 1449 1449 1450 1451 1452 1454 1456 1458 1459 1461 1463 1465 1467 1469 1471 1474 1477 1480 1483 1485 1488 1491 1495 1498 1502 1505 1509 1511 1514 1518 1521 1523 1525 1527 1528
1448 1448 1448 1448 1448 1448 1448 1447 1448 1448 1449 1451 1453 1454 1455 1458 1460 1462 1464 1466 1469 1471 1474 1476 1479 1481 1485 1488 1490 1492 1495 1499 1502 1506 1509 1512 1514 1516 1519 1523 1526 1528 1529 1530
1446 1447 1447 1446 1447 1447 1446 1446 1447 1448 1450 1452 1454 1456 1458 1460 1463 1466 1468 1471 1473 1476 1479 1482 1484 1487 1491 1494 1496 1498 1501 1504 1506 1509 1512 1515 1518 1520 1522 1524 1527 1529 1531 1532
1445 1444 1444 1445 1445 1446 1446 1447 1448 1450 1452 1455 1457 1459 1461 1464 1467 1469 1473 1476 1478 1481 1484 1487 1489 1492 1496 1498 1500 1502 1505 1508 1511 1513 1516 1518 1520 1523 1525 1527 1529 1530 1532 1534
1442 1442 1443 1444 1444 1445 1446 1447 1449 1452 1454 1457 1460 1463 1466 1468 1471 1474 1478 1481 1483 1486 1489 1492 1494 1497 1500 1503 1505 1507 1509 1512 1514 1516 1518 1521 1523 1525 1527 1529 1530 1532 1533 1534
1440 1441 1442 1443 1444 1445 1447 1448 1450 1454 1457 1460 1463 1466 1470 1473 1476 1479 1484 1487 1489 1491 1494 1496 1499 1502 1504 1507 1509 1511 1513 1516 1518 1519 1521 1524 1526 1528 1529 1531 1532 1533 1535 1535
1438 1439 1440 1442 1444 1446 1449 1451 1454 1457 1461 1464 1467 1471 1474 1477 1480 1484 1488 1491 1494 1496 1499 1502 1504 1506 1509 1511 1513 1515 1517 1519 1521 1522 1524 1526 1528 1530 1531 1532 1534 1535 1536 1536
1438 1439 1441 1444 1446 1448 1451 1454 1458 1461 1465 1468 1472 1475 1479 1482 1486 1489 1493 1496 1498 1501 1504 1507 1509 1511 1512 1514 1516 1518 1520 1522 1523 1525 1527 1528 1530 1531 1533 1534 1535 1536 1537 1537
1439 1441 1443 1446 1449 1452 1455 1459 1462 1466 1470 1473 1477 1480 1484 1488 1491 1494 1497 1500 1503 1505 1508 1510 1512 1514 1516 1518 1519 1521 1523 1524 1525 1527 1529 1530 1531 1532 1534 1535 1536 1537 1537 1538
1443 1445 1447 1450 1453 1456 1459 1463 1467 1471 1475 1479 1482 1485 1489 1493 1496 1499 1501 1504 1507 1510 1512 1514 1516 1517 1519 1521 1522 1524 1525 1526 1528 1529 1531 1532 1533 1534 1535 1536 1537 1537 1538 1538
1447 1450 1452 1455 1458 1461 1465 1468 1472 1476 1480 1483 1487 1490 1493 1497 1500 1503 1505 1507 1510 1513 1515 1517 1518 1520 1522 1523 1525 1526 1527 1529 1530 1531 1532 1533 1534 1535 1536 1537 1538 1538 1538 1538
1453 1455 1457 1460 1463 1466 1470 1474 1478 1481 1484 1488 1491 1494 1497 1500 1503 1505 1508 1511 1513 1516 1518 1519 1521 1523 1524 1525 1527 1528 1529 1531 1532 1533 1534 1535 1535 1536 1537 1538 1538 1538 1538 1538
1458 1461 1464 1467 1469 1472 1476 1480 1483 1486 1489 1493 1496 1499 1501 1504 1507 1509 1511 1514 1516 1518 1520 1522 1524 1525 1526 1528 1529 1530 1531 1532 1533 1534 1535 1536 1536 1537 1537 1538 1538 1538 1537 1537
1465 1467 1470 1472 1475 1478 1481 1484 1488 1491 1494 1497 1500 1503 1505 1508 1509 1512 1514 1516 1518 1520 1522 1524 1526 1527 1528 1529 1530 1531 1532 1533 1534 1535 1536 1536 1537 1537 1537 1537 1537 1537 1537 1536
1471 1473 1476 1478 1481 1484 1486 1489 1492 1495 1498 1500 1503 1506 1508 1510 1512 1514 1516 1518 1520 1522 1524 1525 1527 1528 1529 1530 1531 1532 1533 1534 1535 1535 1536 1537 1537 1537 1537 1537 1536 1536 1536 1535
1476 1479 1481 1484 1487 1489 1491 1494 1496 1499 1501 1503 1506 1508 1511 1513 1515 1517 1519 1521 1522 1524 1525 1527 1528 1529 1530 1531 1532 1533 1534 1535 1535 1536 1536 1536 1536 1536 1536 1536 1536 1535 1534 1533